Orbital Elements at Epoch 2459200.5 (2020-Dec-17.0) TDB
Reference: JPL 21 (heliocentric ecliptic J2000)
Element | Value | Uncertainty (1-sigma) | Units |
e | .2727673576696757 | 3.9137e-08 | |
a | 2.721951414463794 | 1.7273e-08 | au |
q | 1.979491919435269 | 1.0666e-07 | au |
i | 24.15482537479294 | 8.8769e-06 | deg |
node | 20.95896036730676 | 1.0948e-05 | deg |
peri | 82.59996275447054 | 2.0932e-05 | deg |
M | 129.4926424025893 | 1.6205e-05 | deg |
tp | 2458610.487010954173 (2019-May-06.98701095) | 7.1017e-05 | TDB |
period | 1640.283742115146 4.49 | 1.5614e-05 4.275e-08 | d yr |
n | .2194742231217753 | 2.0892e-09 | deg/d |
Q | 3.464410909492319 | 2.1985e-08 | au |
|
| | Orbit Determination Parameters
Additional Information
|